When you browse on this site, cookies collect data to enhance your experience and personalize the content and advertising you see.
Visit our Privacy Policy to learn more. By continuing to use the site, you agree to this use of cookies and data.
  • In Austria
  • List of Countries
  • For 7 days
  • Water Temperature
  • Satellite Maps
  • Weather Map
  • News
  • Weather Widgets
  • user-avatar
    Login

    Hourly Weather Rio Grande

    Today, 19 April, Friday

    Time Temperature Precipitation Wind Pressure Humidity
    00:00 +23°C° 0 mm 6 mps 743 mmHg 84%
    01:00 +23°C° 0 mm 6 mps 743 mmHg 84%
    02:00 +23°C° 0 mm 6 mps 742 mmHg 84%
    03:00 +22°C° 0.1 mm 6 mps 742 mmHg 84%
    04:00 +22°C° 0.1 mm 6 mps 742 mmHg 84%
    05:00 +22°C° 0.1 mm 5 mps 742 mmHg 84%
    06:00 +23°C° 0 mm 6 mps 742 mmHg 81%
    07:00 +24°C° 0 mm 6 mps 743 mmHg 77%
    08:00 +26°C° 0 mm 6 mps 743 mmHg 74%
    09:00 +27°C° 0.1 mm 6 mps 743 mmHg 70%
    10:00 +28°C° 0.1 mm 6 mps 744 mmHg 66%
    11:00 +29°C° 0.1 mm 6 mps 744 mmHg 63%
    12:00 +29°C° 0 mm 6 mps 743 mmHg 62%
    13:00 +29°C° 0 mm 6 mps 743 mmHg 60%
    14:00 +30°C° 0 mm 6 mps 743 mmHg 59%
    15:00 +29°C° 0 mm 6 mps 742 mmHg 62%
    16:00 +28°C° 0 mm 6 mps 742 mmHg 66%
    17:00 +27°C° 0 mm 6 mps 741 mmHg 69%
    18:00 +26°C° 0.1 mm 6 mps 742 mmHg 74%
    19:00 +25°C° 0.1 mm 5 mps 742 mmHg 79%
    20:00 +23°C° 0.1 mm 5 mps 743 mmHg 84%
    21:00 +23°C° 0.2 mm 5 mps 743 mmHg 85%
    22:00 +23°C° 0.2 mm 5 mps 743 mmHg 85%
    23:00 +23°C° 0.2 mm 6 mps 744 mmHg 86%

    Tomorrow, 20 April, Saturday

    Time Temperature Precipitation Wind Pressure Humidity
    00:00 +23°C° 0.2 mm 6 mps 743 mmHg 86%
    01:00 +23°C° 0.2 mm 6 mps 743 mmHg 87%
    02:00 +23°C° 0.2 mm 6 mps 742 mmHg 87%
    03:00 +23°C° 0.3 mm 5 mps 742 mmHg 87%
    04:00 +22°C° 0.3 mm 5 mps 743 mmHg 87%
    05:00 +22°C° 0.3 mm 5 mps 743 mmHg 86%
    06:00 +23°C° 0.2 mm 5 mps 743 mmHg 83%
    07:00 +24°C° 0.2 mm 6 mps 743 mmHg 80%
    08:00 +26°C° 0.2 mm 6 mps 744 mmHg 77%
    09:00 +27°C° 0 mm 6 mps 744 mmHg 73%
    10:00 +28°C° 0 mm 6 mps 744 mmHg 69%
    11:00 +29°C° 0 mm 6 mps 745 mmHg 64%
    12:00 +29°C° 0 mm 6 mps 744 mmHg 63%
    13:00 +29°C° 0 mm 6 mps 744 mmHg 61%
    14:00 +29°C° 0 mm 6 mps 743 mmHg 60%
    15:00 +29°C° 0 mm 6 mps 743 mmHg 63%
    16:00 +28°C° 0 mm 6 mps 742 mmHg 66%
    17:00 +27°C° 0 mm 5 mps 742 mmHg 69%
    18:00 +26°C° 0 mm 5 mps 742 mmHg 74%
    19:00 +25°C° 0 mm 5 mps 742 mmHg 79%
    20:00 +23°C° 0 mm 5 mps 743 mmHg 84%
    21:00 +23°C° 0.2 mm 5 mps 743 mmHg 84%
    22:00 +23°C° 0.2 mm 5 mps 743 mmHg 85%
    23:00 +23°C° 0.2 mm 5 mps 743 mmHg 86%

    Day after tomorrow, 21 April, Sunday

    Time Temperature Precipitation Wind Pressure Humidity
    00:00 +23°C° 0.3 mm 5 mps 743 mmHg 87%
    01:00 +23°C° 0.3 mm 4 mps 743 mmHg 87%
    02:00 +23°C° 0.3 mm 4 mps 742 mmHg 88%
    03:00 +23°C° 0.4 mm 5 mps 742 mmHg 88%
    04:00 +22°C° 0.4 mm 5 mps 742 mmHg 89%
    05:00 +22°C° 0.4 mm 5 mps 742 mmHg 89%
    06:00 +23°C° 0.3 mm 5 mps 742 mmHg 86%
    07:00 +25°C° 0.3 mm 5 mps 743 mmHg 83%
    08:00 +26°C° 0.3 mm 5 mps 743 mmHg 80%
    09:00 +27°C° 0.2 mm 5 mps 743 mmHg 76%
    10:00 +28°C° 0.2 mm 5 mps 743 mmHg 72%
    11:00 +28°C° 0.2 mm 5 mps 744 mmHg 69%
    12:00 +29°C° 0 mm 5 mps 743 mmHg 66%
    13:00 +29°C° 0 mm 5 mps 743 mmHg 64%
    14:00 +29°C° 0 mm 5 mps 742 mmHg 62%
    15:00 +29°C° 0 mm 5 mps 742 mmHg 64%
    16:00 +28°C° 0 mm 5 mps 741 mmHg 66%
    17:00 +27°C° 0 mm 4 mps 741 mmHg 68%
    18:00 +26°C° 0 mm 4 mps 741 mmHg 73%
    19:00 +25°C° 0 mm 4 mps 741 mmHg 79%
    20:00 +23°C° 0 mm 4 mps 742 mmHg 84%
    21:00 +23°C° 0 mm 4 mps 742 mmHg 85%
    22:00 +23°C° 0 mm 4 mps 742 mmHg 86%
    23:00 +23°C° 0 mm 4 mps 742 mmHg 87%

    22 April, Monday

    Time Temperature Precipitation Wind Pressure Humidity
    00:00 +23°C° 0.2 mm 4 mps 742 mmHg 88%
    01:00 +23°C° 0.2 mm 4 mps 741 mmHg 89%
    02:00 +23°C° 0.2 mm 4 mps 741 mmHg 89%
    03:00 +24°C° 0.2 mm 3 mps 740 mmHg 89%
    04:00 +22°C° 0.2 mm 3 mps 740 mmHg 89%
    05:00 +22°C° 0.2 mm 3 mps 740 mmHg 89%
    06:00 +24°C° 0.1 mm 3 mps 741 mmHg 86%
    07:00 +25°C° 0.1 mm 3 mps 741 mmHg 82%
    08:00 +26°C° 0.1 mm 3 mps 741 mmHg 78%
    09:00 +27°C° 0.5 mm 4 mps 741 mmHg 75%
    10:00 +27°C° 0.5 mm 4 mps 742 mmHg 72%
    11:00 +28°C° 0.5 mm 5 mps 742 mmHg 69%
    12:00 +28°C° 0.2 mm 5 mps 741 mmHg 68%
    13:00 +28°C° 0.2 mm 5 mps 741 mmHg 67%
    14:00 +29°C° 0.2 mm 5 mps 740 mmHg 65%
    15:00 +28°C° 0.1 mm 5 mps 740 mmHg 68%
    16:00 +28°C° 0.1 mm 5 mps 739 mmHg 70%
    17:00 +27°C° 0.1 mm 4 mps 739 mmHg 73%
    18:00 +26°C° 0 mm 4 mps 739 mmHg 75%
    19:00 +25°C° 0 mm 4 mps 740 mmHg 77%
    20:00 +24°C° 0 mm 3 mps 740 mmHg 80%
    21:00 +24°C° 0 mm 3 mps 740 mmHg 80%
    22:00 +24°C° 0 mm 3 mps 741 mmHg 80%
    23:00 +24°C° 0 mm 3 mps 741 mmHg 80%

    23 April, Tuesday

    Time Temperature Precipitation Wind Pressure Humidity
    00:00 +22°C° 0 mm 3 mps 740 mmHg 81%
    01:00 +22°C° 0 mm 3 mps 740 mmHg 82%
    02:00 +22°C° 0 mm 3 mps 740 mmHg 83%
    03:00 +22°C° 0 mm 3 mps 740 mmHg 84%
    04:00 +22°C° 0 mm 3 mps 740 mmHg 85%
    05:00 +23°C° 0 mm 2 mps 740 mmHg 85%
    06:00 +24°C° 0 mm 3 mps 740 mmHg 81%
    07:00 +25°C° 0 mm 3 mps 741 mmHg 76%
    08:00 +26°C° 0 mm 3 mps 741 mmHg 72%
    09:00 +27°C° 0 mm 3 mps 741 mmHg 68%
    10:00 +28°C° 0 mm 3 mps 741 mmHg 63%
    11:00 +29°C° 0 mm 3 mps 741 mmHg 59%
    12:00 +29°C° 0 mm 3 mps 741 mmHg 59%
    13:00 +29°C° 0 mm 4 mps 740 mmHg 59%
    14:00 +29°C° 0 mm 4 mps 740 mmHg 59%
    15:00 +28°C° 0 mm 4 mps 740 mmHg 61%
    16:00 +28°C° 0 mm 4 mps 740 mmHg 62%
    17:00 +27°C° 0 mm 3 mps 740 mmHg 64%
    18:00 +26°C° 0 mm 3 mps 740 mmHg 67%
    19:00 +25°C° 0 mm 3 mps 740 mmHg 70%
    20:00 +24°C° 0 mm 3 mps 741 mmHg 74%
    21:00 +24°C° 0 mm 3 mps 741 mmHg 74%
    22:00 +24°C° 0 mm 3 mps 741 mmHg 75%
    23:00 +24°C° 0 mm 2 mps 741 mmHg 76%

    24 April, Wednesday

    Time Temperature Precipitation Wind Pressure Humidity
    00:00 +23°C° 0 mm 2 mps 741 mmHg 77%
    01:00 +23°C° 0 mm 2 mps 740 mmHg 79%
    02:00 +23°C° 0 mm 2 mps 740 mmHg 80%
    03:00 +23°C° 0 mm 2 mps 740 mmHg 81%
    04:00 +23°C° 0 mm 2 mps 740 mmHg 82%
    05:00 +23°C° 0 mm 2 mps 740 mmHg 83%
    06:00 +24°C° 0 mm 2 mps 741 mmHg 79%
    07:00 +25°C° 0 mm 2 mps 741 mmHg 75%
    08:00 +26°C° 0 mm 2 mps 742 mmHg 71%
    09:00 +27°C° 0 mm 3 mps 742 mmHg 67%
    10:00 +28°C° 0 mm 3 mps 742 mmHg 64%
    11:00 +29°C° 0 mm 3 mps 742 mmHg 60%
    12:00 +29°C° 0 mm 4 mps 742 mmHg 61%
    13:00 +29°C° 0 mm 4 mps 741 mmHg 61%
    14:00 +29°C° 0 mm 4 mps 741 mmHg 62%
    15:00 +29°C° 0.1 mm 4 mps 741 mmHg 65%
    16:00 +28°C° 0.1 mm 4 mps 740 mmHg 67%
    17:00 +27°C° 0.1 mm 4 mps 740 mmHg 70%
    18:00 +27°C° 0 mm 4 mps 741 mmHg 75%
    19:00 +26°C° 0 mm 4 mps 741 mmHg 79%
    20:00 +25°C° 0 mm 4 mps 741 mmHg 83%
    21:00 +24°C° 0 mm 3 mps 742 mmHg 85%
    22:00 +24°C° 0 mm 3 mps 742 mmHg 86%
    23:00 +24°C° 0 mm 3 mps 742 mmHg 88%
    Show more